Location: Newark
(45.5000°N, 11.4167°E)
Time: 14:32:01
(UTC+00:00)

A-11 Canister half - Pass Details

Date: 27 August 2019
Orbit: 1513 x 1686 km, 47.2° (Epoch: 19 September)

Event Time Altitude Azimuth Distance (km) Brightness Sun altitude
Rises 18:12:02 0° 265° (W) 4,687 13.1 -2.5°
Reaches altitude 10° 18:15:03 10° 267° (W) 3,721 12.5 -3.0°
Maximum altitude 18:24:32 82° 355° (N) 1,601 9.2 -4.6°
Drops below altitude 10° 18:34:24 10° 84° (E) 3,859 10.6 -6.2°
Enters shadow 18:36:41 - 85° (E) 4,583 10.9 -6.6°
Sets 18:37:35 0° 86° (E) 4,867 - -6.7°
